Time,TemperatureF,DewpointF,PressureIn,WindDirection,WindDirectionDegrees,WindSpeedMPH,WindSpeedGustMPH,Humidity,HourlyPrecipIn,Conditions,Clouds,dailyrainin,SoftwareType,DateUTC
2013-07-13 00:09:00,57.6,51.8,29.63,West,270,0.0,-999.0,81,-99.99,,,0.00,Acu-Link.com,2013-07-13 07:09:00,
2013-07-13 00:25:00,57.0,51.9,29.63,SE,135,0.0,-999.0,83,-99.99,,,0.00,Acu-Link.com,2013-07-13 07:25:00,
2013-07-13 00:40:00,56.5,51.7,29.63,SSW,202,1.1,-999.0,84,-99.99,,,0.00,Acu-Link.com,2013-07-13 07:40:00,
2013-07-13 00:55:00,56.7,52.2,29.63,SSE,157,1.7,-999.0,85,-99.99,,,0.00,Acu-Link.com,2013-07-13 07:55:00,
2013-07-13 01:11:00,56.7,52.2,29.63,South,180,2.2,-999.0,85,-99.99,,,0.00,Acu-Link.com,2013-07-13 08:11:00,
2013-07-13 01:26:00,56.7,52.2,29.63,East,90,1.1,-999.0,85,-99.99,,,0.00,Acu-Link.com,2013-07-13 08:26:00,
2013-07-13 01:41:00,56.5,52.4,29.64,WNW,292,1.7,-999.0,86,-99.99,,,0.00,Acu-Link.com,2013-07-13 08:41:00,
2013-07-13 01:56:00,56.3,52.2,29.63,WNW,292,2.2,-999.0,86,-99.99,,,0.00,Acu-Link.com,2013-07-13 08:56:00,
2013-07-13 02:11:00,56.3,52.5,29.63,East,90,0.0,-999.0,87,-99.99,,,0.00,Acu-Link.com,2013-07-13 09:11:00,
2013-07-13 02:26:00,56.1,52.3,29.63,NW,315,1.7,-999.0,87,-99.99,,,0.00,Acu-Link.com,2013-07-13 09:26:00,
2013-07-13 02:41:00,56.3,52.5,29.64,East,90,1.7,-999.0,87,-99.99,,,0.00,Acu-Link.com,2013-07-13 09:41:00,
2013-07-13 02:57:00,56.1,52.3,29.64,West,270,2.2,-999.0,87,-99.99,,,0.00,Acu-Link.com,2013-07-13 09:57:00,
2013-07-13 03:12:00,55.9,52.1,29.64,WSW,247,2.7,-999.0,87,-99.99,,,0.00,Acu-Link.com,2013-07-13 10:12:00,
2013-07-13 03:27:00,55.9,52.1,29.64,SE,135,2.7,-999.0,87,-99.99,,,0.00,Acu-Link.com,2013-07-13 10:27:00,
2013-07-13 03:42:00,55.8,52.0,29.64,West,270,1.7,-999.0,87,-99.99,,,0.00,Acu-Link.com,2013-07-13 10:42:00,
2013-07-13 03:58:00,55.6,52.1,29.64,SW,225,0.0,-999.0,88,-99.99,,,0.00,Acu-Link.com,2013-07-13 10:58:00,
2013-07-13 04:13:00,55.4,51.9,29.64,ENE,67,0.0,-999.0,88,-99.99,,,0.00,Acu-Link.com,2013-07-13 11:13:00,
2013-07-13 04:28:00,54.9,51.4,29.65,South,180,0.0,-999.0,88,-99.99,,,0.00,Acu-Link.com,2013-07-13 11:28:00,
2013-07-13 04:43:00,55.0,51.8,29.65,WSW,247,0.0,-999.0,89,-99.99,,,0.00,Acu-Link.com,2013-07-13 11:43:00,
2013-07-13 04:59:00,54.9,52.0,29.65,SE,135,1.7,-999.0,90,-99.99,,,0.00,Acu-Link.com,2013-07-13 11:59:00,
2013-07-13 05:14:00,54.3,51.4,29.66,SW,225,1.1,-999.0,90,-99.99,,,0.00,Acu-Link.com,2013-07-13 12:14:00,
2013-07-13 05:29:00,54.5,51.9,29.66,WNW,292,2.7,-999.0,91,-99.99,,,0.00,Acu-Link.com,2013-07-13 12:29:00,
2013-07-13 05:44:00,54.3,51.7,29.66,NW,315,1.1,-999.0,91,-99.99,,,0.00,Acu-Link.com,2013-07-13 12:44:00,
2013-07-13 06:00:00,54.0,51.4,29.67,SW,225,0.0,-999.0,91,-99.99,,,0.00,Acu-Link.com,2013-07-13 13:00:00,
2013-07-13 06:15:00,54.1,51.5,29.67,NW,315,0.0,-999.0,91,-99.99,,,0.00,Acu-Link.com,2013-07-13 13:15:00,
2013-07-13 06:30:00,54.3,51.7,29.68,West,270,1.1,-999.0,91,-99.99,,,0.00,Acu-Link.com,2013-07-13 13:30:00,
2013-07-13 06:46:00,55.2,52.3,29.68,West,270,0.0,-999.0,90,-99.99,,,0.00,Acu-Link.com,2013-07-13 13:46:00,
2013-07-13 07:01:00,56.1,53.2,29.68,North,0,0.0,-999.0,90,-99.99,,,0.00,Acu-Link.com,2013-07-13 14:01:00,
2013-07-13 07:16:00,57.9,53.7,29.69,WNW,292,0.0,-999.0,86,-99.99,,,0.00,Acu-Link.com,2013-07-13 14:16:00,
2013-07-13 07:32:00,59.9,53.7,29.69,NW,315,0.0,-999.0,80,-99.99,,,0.00,Acu-Link.com,2013-07-13 14:32:00,
2013-07-13 07:47:00,62.2,54.5,29.69,WSW,247,0.0,-999.0,76,-99.99,,,0.00,Acu-Link.com,2013-07-13 14:47:00,
2013-07-13 08:02:00,65.5,55.4,29.70,SSW,202,0.0,-999.0,70,-99.99,,,0.00,Acu-Link.com,2013-07-13 15:02:00,
2013-07-13 08:18:00,66.0,55.5,29.71,South,180,1.1,-999.0,69,-99.99,,,0.00,Acu-Link.com,2013-07-13 15:18:00,
2013-07-13 08:33:00,66.7,55.4,29.71,SSE,157,2.7,-999.0,67,-99.99,,,0.00,Acu-Link.com,2013-07-13 15:33:00,
2013-07-13 08:48:00,68.2,56.0,29.71,SSE,157,0.0,-999.0,65,-99.99,,,0.00,Acu-Link.com,2013-07-13 15:48:00,
2013-07-13 09:04:00,69.3,56.2,29.71,WSW,247,0.0,-999.0,63,-99.99,,,0.00,Acu-Link.com,2013-07-13 16:04:00,
2013-07-13 09:19:00,71.2,56.6,29.71,WSW,247,0.0,-999.0,60,-99.99,,,0.00,Acu-Link.com,2013-07-13 16:19:00,
2013-07-13 09:34:00,72.3,57.2,29.70,SSE,157,0.0,-999.0,59,-99.99,,,0.00,Acu-Link.com,2013-07-13 16:34:00,
2013-07-13 09:49:00,73.0,55.4,29.71,West,270,1.1,-999.0,54,-99.99,,,0.00,Acu-Link.com,2013-07-13 16:49:00,
2013-07-13 10:05:00,73.6,56.4,29.71,SSW,202,2.7,-999.0,55,-99.99,,,0.00,Acu-Link.com,2013-07-13 17:05:00,
2013-07-13 10:20:00,76.3,56.3,29.71,SSW,202,1.1,-999.0,50,-99.99,,,0.00,Acu-Link.com,2013-07-13 17:20:00,
2013-07-13 10:36:00,76.6,56.0,29.71,WNW,292,2.7,-999.0,49,-99.99,,,0.00,Acu-Link.com,2013-07-13 17:36:00,
2013-07-13 10:51:00,78.3,56.4,29.71,East,90,0.0,-999.0,47,-99.99,,,0.00,Acu-Link.com,2013-07-13 17:51:00,
2013-07-13 11:06:00,80.2,56.9,29.71,South,180,2.2,-999.0,45,-99.99,,,0.00,Acu-Link.com,2013-07-13 18:06:00,
2013-07-13 11:22:00,80.2,57.5,29.72,East,90,3.7,-999.0,46,-99.99,,,0.00,Acu-Link.com,2013-07-13 18:22:00,
2013-07-13 11:37:00,81.3,56.6,29.71,East,90,2.7,-999.0,43,-99.99,,,0.00,Acu-Link.com,2013-07-13 18:37:00,
2013-07-13 11:52:00,82.0,57.3,29.71,West,270,2.2,-999.0,43,-99.99,,,0.00,Acu-Link.com,2013-07-13 18:52:00,
2013-07-13 12:08:00,84.0,57.1,29.71,ESE,112,1.7,-999.0,40,-99.99,,,0.00,Acu-Link.com,2013-07-13 19:08:00,
2013-07-13 12:23:00,83.1,57.6,29.71,WSW,247,1.7,-999.0,42,-99.99,,,0.00,Acu-Link.com,2013-07-13 19:23:00,
2013-07-13 12:39:00,85.1,57.3,29.71,East,90,2.7,-999.0,39,-99.99,,,0.00,Acu-Link.com,2013-07-13 19:39:00,
2013-07-13 12:54:00,86.7,57.3,29.70,NNE,22,2.7,-999.0,37,-99.99,,,0.00,Acu-Link.com,2013-07-13 19:54:00,
2013-07-13 13:09:00,85.1,55.9,29.70,SSW,202,2.2,-999.0,37,-99.99,,,0.00,Acu-Link.com,2013-07-13 20:09:00,
2013-07-13 13:24:00,84.9,55.7,29.70,WSW,247,4.7,-999.0,37,-99.99,,,0.00,Acu-Link.com,2013-07-13 20:24:00,
2013-07-13 13:39:00,86.7,55.7,29.69,West,270,3.7,-999.0,35,-99.99,,,0.00,Acu-Link.com,2013-07-13 20:39:00,
2013-07-13 13:55:00,88.2,54.6,29.69,SW,225,1.7,-999.0,32,-99.99,,,0.00,Acu-Link.com,2013-07-13 20:55:00,
2013-07-13 14:10:00,88.5,53.1,29.68,SSW,202,4.2,-999.0,30,-99.99,,,0.00,Acu-Link.com,2013-07-13 21:10:00,
2013-07-13 14:25:00,89.4,52.0,29.68,WSW,247,3.7,-999.0,28,-99.99,,,0.00,Acu-Link.com,2013-07-13 21:25:00,
2013-07-13 14:40:00,89.6,49.1,29.68,South,180,4.2,-999.0,25,-99.99,,,0.00,Acu-Link.com,2013-07-13 21:40:00,
2013-07-13 14:56:00,90.3,50.7,29.67,SW,225,5.8,-999.0,26,-99.99,,,0.00,Acu-Link.com,2013-07-13 21:56:00,
2013-07-13 15:11:00,91.0,53.3,29.67,NW,315,3.2,-999.0,28,-99.99,,,0.00,Acu-Link.com,2013-07-13 22:11:00,
2013-07-13 15:26:00,91.9,48.8,29.66,East,90,5.3,-999.0,23,-99.99,,,0.00,Acu-Link.com,2013-07-13 22:26:00,
2013-07-13 15:42:00,90.9,51.2,29.66,NNW,337,4.7,-999.0,26,-99.99,,,0.00,Acu-Link.com,2013-07-13 22:42:00,
2013-07-13 15:57:00,92.3,46.7,29.65,ENE,67,1.7,-999.0,21,-99.99,,,0.00,Acu-Link.com,2013-07-13 22:57:00,
2013-07-13 16:12:00,93.2,47.4,29.64,NNE,22,2.7,-999.0,21,-99.99,,,0.00,Acu-Link.com,2013-07-13 23:12:00,
2013-07-13 16:28:00,93.2,46.1,29.64,SSE,157,4.7,-999.0,20,-99.99,,,0.00,Acu-Link.com,2013-07-13 23:28:00,
2013-07-13 16:43:00,93.4,48.8,29.64,NNE,22,3.7,-999.0,22,-99.99,,,0.00,Acu-Link.com,2013-07-13 23:43:00,
2013-07-13 16:58:00,91.9,51.0,29.63,West,270,3.7,-999.0,25,-99.99,,,0.00,Acu-Link.com,2013-07-13 23:58:00,
2013-07-13 17:14:00,93.9,52.7,29.63,NNE,22,2.2,-999.0,25,-99.99,,,0.00,Acu-Link.com,2013-07-14 00:14:00,
2013-07-13 17:29:00,94.5,54.3,29.63,WNW,292,3.7,-999.0,26,-99.99,,,0.00,Acu-Link.com,2013-07-14 00:29:00,
2013-07-13 17:44:00,90.9,52.3,29.63,South,180,3.2,-999.0,27,-99.99,,,0.00,Acu-Link.com,2013-07-14 00:44:00,
2013-07-13 17:59:00,93.4,55.4,29.62,East,90,3.2,-999.0,28,-99.99,,,0.00,Acu-Link.com,2013-07-14 00:59:00,
2013-07-13 18:15:00,90.9,55.1,29.62,ESE,112,3.2,-999.0,30,-99.99,,,0.00,Acu-Link.com,2013-07-14 01:15:00,
2013-07-13 18:30:00,89.6,54.9,29.62,East,90,5.3,-999.0,31,-99.99,,,0.00,Acu-Link.com,2013-07-14 01:30:00,
2013-07-13 18:45:00,87.6,54.9,29.62,South,180,3.2,-999.0,33,-99.99,,,0.00,Acu-Link.com,2013-07-14 01:45:00,
2013-07-13 19:00:00,85.8,56.5,29.62,NNW,337,4.7,-999.0,37,-99.99,,,0.00,Acu-Link.com,2013-07-14 02:00:00,
2013-07-13 19:15:00,82.4,56.3,29.62,West,270,3.7,-999.0,41,-99.99,,,0.00,Acu-Link.com,2013-07-14 02:15:00,
2013-07-13 19:31:00,80.1,54.3,29.62,ESE,112,1.7,-999.0,41,-99.99,,,0.00,Acu-Link.com,2013-07-14 02:31:00,
2013-07-13 19:46:00,77.2,52.3,29.62,West,270,3.7,-999.0,42,-99.99,,,0.00,Acu-Link.com,2013-07-14 02:46:00,
2013-07-13 20:01:00,76.3,50.2,29.63,WSW,247,4.2,-999.0,40,-99.99,,,0.00,Acu-Link.com,2013-07-14 03:01:00,
2013-07-13 20:16:00,72.7,50.7,29.63,SE,135,1.7,-999.0,46,-99.99,,,0.00,Acu-Link.com,2013-07-14 03:16:00,
2013-07-13 20:32:00,72.1,51.9,29.63,South,180,0.0,-999.0,49,-99.99,,,0.00,Acu-Link.com,2013-07-14 03:32:00,
2013-07-13 20:47:00,69.4,53.0,29.64,South,180,0.0,-999.0,56,-99.99,,,0.00,Acu-Link.com,2013-07-14 03:47:00,
2013-07-13 21:02:00,68.2,52.4,29.64,NE,45,1.1,-999.0,57,-99.99,,,0.00,Acu-Link.com,2013-07-14 04:02:00,
2013-07-13 21:17:00,66.4,52.5,29.65,SSE,157,2.2,-999.0,61,-99.99,,,0.00,Acu-Link.com,2013-07-14 04:17:00,
2013-07-13 21:33:00,65.5,52.6,29.65,NE,45,0.0,-999.0,63,-99.99,,,0.00,Acu-Link.com,2013-07-14 04:33:00,
2013-07-13 21:48:00,64.6,52.6,29.66,WSW,247,1.1,-999.0,65,-99.99,,,0.00,Acu-Link.com,2013-07-14 04:48:00,
2013-07-13 22:03:00,63.9,52.7,29.67,SSE,157,0.0,-999.0,67,-99.99,,,0.00,Acu-Link.com,2013-07-14 05:03:00,
2013-07-13 22:19:00,63.0,52.3,29.67,SSE,157,0.0,-999.0,68,-99.99,,,0.00,Acu-Link.com,2013-07-14 05:19:00,
2013-07-13 22:34:00,62.2,51.9,29.67,NW,315,2.2,-999.0,69,-99.99,,,0.00,Acu-Link.com,2013-07-14 05:34:00,
2013-07-13 22:49:00,61.3,52.9,29.68,NNE,22,2.2,-999.0,74,-99.99,,,0.00,Acu-Link.com,2013-07-14 05:49:00,
2013-07-13 23:05:00,60.4,52.8,29.68,West,270,0.0,-999.0,76,-99.99,,,0.00,Acu-Link.com,2013-07-14 06:05:00,
2013-07-13 23:20:00,59.9,52.7,29.67,WSW,247,1.1,-999.0,77,-99.99,,,0.00,Acu-Link.com,2013-07-14 06:20:00,
2013-07-13 23:35:00,59.5,52.3,29.68,West,270,1.1,-999.0,77,-99.99,,,0.00,Acu-Link.com,2013-07-14 06:35:00,
2013-07-13 23:50:00,59.7,52.5,29.68,West,270,2.7,-999.0,77,-99.99,,,0.00,Acu-Link.com,2013-07-14 06:50:00,